Location: Bretagne
(43.8474°N, 0.4650°W)
Time: 20:29:04
(UTC+00:00)

Cosmos 1515 Rocket - Pass Details

Date: 15 January 2026
Orbit: 599 x 623 km, 82.5° (Epoch: 13 February)

Event Time Altitude Azimuth Distance (km) Brightness Sun altitude
Rises 18:01:54 0° 187° (S) 2,879 7.3 -12.7°
Reaches altitude 10° 18:04:06 10° 188° (S) 1,981 6.5 -13.1°
Maximum altitude 18:08:30 88° 275° (W) 629 3.6 -13.9°
Drops below altitude 10° 18:12:58 10° 8° (N) 2,004 5.9 -14.7°
Sets 18:15:12 0° 9° (N) 2,915 6.8 -15.1°
